Regional Weather Roundup
Issued by NWS

Home | Current Version | Previous Version | Graphics & Text | Print | Product List | Glossary Off
Versions: 1 2 3 4 5 6 7 8 9 10 11 12 13 14 15 16 17 18 19 20 21 22 23 24 25 26 27 28 29 30 31 32 33 34 35 36 37 38 39 40 41 42 43 44 45 46 47 48 49 50

000
ASUS43 KMPX 011001
RWRMN
WEATHER ROUNDUP FOR MINNESOTA
NATIONAL WEATHER SERVICE TWIN CITIES/CHANHASSEN MN
500 AM CDT SAT AUG 01 2015


NOTE: "FAIR" INDICATES FEW OR NO CLOUDS BELOW 12,000 FEET WITH NO
SIGNIFICANT WEATHER AND/OR OBSTRUCTIONS TO VISIBILITY. N/A MEANS
CURRENT SKY AND/OR WEATHER CONDITIONS ARE NOT AVAILABLE.

MNZ060>063-068>070-011100-
   Twin Cities Metro

CITY           SKY/WX    TMP DP  RH WIND       PRES   REMARKS
TWIN CITIES    PTCLDY    68  58  70 CALM      29.96F
ST PAUL        PTCLDY    65  61  87 CALM      29.97F
CRYSTAL        CLEAR     64  59  83 CALM      29.95F
BLAINE         CLEAR     63  61  94 CALM      29.96F
LAKEVILLE      PTCLDY    61  57  88 CALM      29.97F
EDEN PRAIRIE   CLEAR     63  59  87 CALM      29.96F
SOUTH ST PAUL  CLEAR     65  58  76 CALM      29.96F
LAKE ELMO      FAIR      59  59 100 CALM      29.98F
$$
MNZ001>005-007-008-013>017-022>024-027-028-011100-
   Northwest Minnesota

CITY           SKY/WX    TMP DP  RH WIND       PRES   REMARKS
BEMIDJI        CLEAR     54  50  86 W5        29.96S
HALLOCK        CLEAR     48  46  93 CALM      29.94S
ROSEAU         CLEAR     54  48  82 SW5       29.93S
WARROAD        CLEAR     55  54  94 W6        29.93S
THIEF RVR FALL CLEAR     55  52  88 CALM      29.96S
CROOKSTON      CLEAR     54  52  94 CALM      29.97S
FOSSTON        CLEAR     48  48 100 S3        29.98S
DETROIT LAKES  CLEAR     55  54  94 CALM      30.00S
MOORHEAD       CLEAR     57  55  94 SW3       29.98F
PARK RAPIDS    CLEAR     53  49  86 CALM      29.98S
MAHNOMEN       FAIR      53  50  90 S6        29.98S
$$
MNZ006-009>011-018-025>026-011100-
   North Central Minnesota

CITY           SKY/WX    TMP DP  RH WIND       PRES   REMARKS
BAUDETTE       CLEAR     53  50  89 MISG      29.91S
FLAG ISLAND    CLEAR     61  54  77 W12       29.89S
INTL FALLS     CLEAR     53  49  86 W3        29.90S
WASKISH        CLEAR     57  54  88 NW3       29.93F
BIG FORK       CLEAR     50  48  93 CALM      29.94S
LONGVILLE      CLEAR     54  52  94 CALM      29.96S FOG
GRAND RAPIDS   CLEAR     52  48  87 CALM      29.95F
CRANE LAKE     CLEAR     46  46 100 CALM      29.92S
ORR            CLEAR     50  46  87 CALM      29.90S
COOK           CLEAR     48  46  93 CALM      29.93S
WALKER         FAIR      51  49  95 CALM      29.96F
$$
MNZ012-019>021-037-011100-
   Northeast Minnesota

CITY           SKY/WX    TMP DP  RH WIND       PRES   REMARKS
DULUTH         CLEAR     58  50  75 W7        29.94S
ELY            CLEAR     52  50  93 SW3       29.91S
HIBBING        CLEAR     48  45  89 CALM      29.94S
EVELETH        CLEAR     48  46  93 CALM      29.94F
DULUTH HARBOR  CLEAR     63  54  72 W9        29.93S
TWO HARBORS    CLEAR     55  52  88 NW5       29.91S
SILVER BAY     CLEAR     55  50  82 NW3       29.90S
GRAND MARAIS     N/A     61  53  75 VRB7      29.84S
G MARAIS ARPRT PTCLDY    55  48  76 W6        29.89S
$$
MNZ029>031-032-039>041-046>048-054>057-064-011100-
   West Central Minnesota

CITY           SKY/WX    TMP DP  RH WIND       PRES   REMARKS
FERGUS FALLS   CLEAR     61  57  88 CALM      29.99S
WHEATON        CLEAR     57  55  94 SW6       30.00F
MORRIS         CLEAR     61  59  94 CALM      29.98F
ALEXANDRIA     FOG       60  59  96 CALM      30.00F VSB 1/2
ELBOW LAKE     FAIR      61  60  95 CALM      29.99F
WADENA         CLEAR     54  54 100 CALM      29.98F
GLENWOOD       CLEAR     63  57  82 N3        29.99F
APPLETON       CLEAR     59  55  88 CALM      29.98F
BENSON         CLEAR     55  54  94 CALM      29.99S
ORTONVILLE     CLEAR     63  61  94 NW3       30.00S
MADISON        CLEAR     61  57  88 W7        30.00R
WILLMAR        FAIR      59  57  94 CALM      30.00S
$$
MNZ033>034-036-042>043-049>051-058-059-011100-
   Central Minnesota

CITY           SKY/WX    TMP DP  RH WIND       PRES   REMARKS
ST CLOUD       CLEAR     58  57  97 N3        29.97F
SAUK CENTRE    FAIR      56  56  98 CALM      29.99S
PAYNESVILLE    CLEAR     54  54 100 CALM      29.98F
AITKIN         CLEAR     52  46  82 CALM      29.95S
PINE RIVER     CLEAR     50  48  93 CALM      30.00F
BRAINERD       CLEAR     52  51  97 S3        29.97F
STAPLES        CLEAR     54  52  94 CALM      29.98S
LONG PRAIRIE   FAIR      59  57  94 CALM      29.99F
LITTLE FALLS   CLEAR     54  52  94 CALM      29.98F
LITCHFIELD     CLEAR     63  61  94 CALM      29.98F
BUFFALO        CLEAR     60  57  88 CALM      29.98F
$$
MNZ037-044-045-052-053-011100-
   East Central Minnesota

CITY           SKY/WX    TMP DP  RH WIND       PRES   REMARKS
PRINCETON      MOCLDY    61  57  88 CALM      29.97F
MORA           CLEAR     54  52  94 CALM      29.98F
CAMBRIDGE      MOCLDY    63  54  72 CALM      29.95F
RUSH CITY      CLOUDY    57  55  95 CALM      29.96F
MOOSE LAKE     PTCLDY    50  48  93 CALM      29.95S
HINCKLEY       FAIR      52  52 100 CALM      29.96F
CLOQUET        CLEAR     55  48  76 W6        29.95S
MCGREGOR       CLEAR     50  46  87 CALM      29.96S
$$
MNZ071>073-080-081-089-090-097-098-011100-
   Southwest Minnesota

CITY           SKY/WX    TMP DP  RH WIND       PRES   REMARKS
MONTEVIDEO     CLEAR     61  55  82 NW6       30.01R
GRANITE FALLS  CLEAR     58  56  95 W3        30.01R
CANBY          CLEAR     63  59  88 NW6       30.02R
MARSHALL       CLEAR     63  57  82 W5        30.01S
REDWOOD FALLS  CLEAR     62  59  90 W7        29.98S
OLIVIA         CLEAR     57  54  88 W5        29.98S
PIPESTONE      CLEAR     61  59  94 SW5       30.01F
WINDOM         CLEAR     63  59  88 CALM      30.02F
WORTHINGTON    CLEAR     64  57  77 SW8       30.03F
JACKSON        CLEAR     66  61  82 SW9       30.02F
TRACY          CLEAR     66  63  88 SW8       29.99F
SLAYTON        CLEAR     64  62  93 CALM      30.02F
$$
MNZ065>067-074>077-082>085-091>093-011100-
   South Central Minnesota

CITY           SKY/WX    TMP DP  RH WIND       PRES   REMARKS
MANKATO        CLEAR     63  55  77 SW6       29.98F
NEW ULM        CLEAR     59  57  94 W5        29.98F
ST JAMES       CLEAR     66  63  88 SW9       30.00F
FAIRMONT       CLEAR     64  55  72 SW9       30.00F
GLENCOE        CLEAR     60  59  95 CALM      29.97S
FARIBAULT      CLEAR     63  59  88 S5        29.99S
OWATONNA       CLEAR     63  57  82 S5        29.99F
WASECA         CLEAR     59  55  88 SW3       30.00F
ALBERT LEA     CLEAR     64  57  77 SW6       30.00F
$$
MNZ078>079-086>088-094>096-011100-
   Southeast Minnesota

CITY           SKY/WX    TMP DP  RH WIND       PRES   REMARKS
ROCHESTER      PTCLDY    64  57  78 CALM      30.01F
RED WING       PTCLDY    61  59  94 CALM      29.96F
STANTON        PTCLDY    63  58  86 CALM      29.96F
DODGE CENTER   PTCLDY    61  57  88 CALM      30.00F
WINONA         MOCLDY    61  59  94 CALM      29.99S
AUSTIN         CLEAR     59  55  88 CALM      30.00F
PRESTON        PTCLDY    63  56  78 SW5       30.01F
$$
ABBREVIATIONS USED IN REMARKS
   TC - TEMPERATURES IN CELSIUS
  WCI - WIND CHILL INDEX
   HX - HEAT INDEX
  VSB - VISIBILITY
$$



USA.gov is the U.S. government's official web portal to all federal, state and local government web resources and services.